• In India
  • List of Countries
  • For 7 days
  • Water Temperature
  • Satellite Maps
  • Weather Map
  • Weather Widgets
  • user-avatar
    Login

    Hourly Weather Lezhe

    Today, 23 October, Monday

    Time Temperature Precipitation Wind Pressure Humidity
    00:00 +15°C° 1.1 mm 4 mps 732 mmHg 85%
    01:00 +15°C° 0 mm 5 mps 732 mmHg 83%
    02:00 +15°C° 2.2 mm 5 mps 731 mmHg 84%
    03:00 +15°C° 2.2 mm 4 mps 730 mmHg 86%
    04:00 +15°C° 2.2 mm 4 mps 730 mmHg 87%
    05:00 +15°C° 0.8 mm 4 mps 730 mmHg 88%
    06:00 +15°C° 0.8 mm 4 mps 729 mmHg 89%
    07:00 +14°C° 0 mm 4 mps 729 mmHg 91%
    08:00 +15°C° 0.8 mm 4 mps 729 mmHg 86%
    09:00 +16°C° 0.8 mm 3 mps 729 mmHg 82%
    10:00 +17°C° 0.8 mm 3 mps 729 mmHg 78%
    11:00 +17°C° 1 mm 3 mps 728 mmHg 75%
    12:00 +17°C° 1 mm 3 mps 728 mmHg 72%
    13:00 +17°C° 1 mm 3 mps 728 mmHg 69%
    14:00 +16°C° 0.8 mm 3 mps 728 mmHg 73%
    15:00 +16°C° 0.8 mm 2 mps 728 mmHg 76%
    16:00 +15°C° 0.8 mm 2 mps 728 mmHg 79%
    17:00 +14°C° 0.9 mm 2 mps 728 mmHg 81%
    18:00 +13°C° 0.9 mm 2 mps 728 mmHg 82%
    19:00 +13°C° 0.9 mm 2 mps 728 mmHg 83%
    20:00 +12°C° 0.4 mm 2 mps 728 mmHg 82%
    21:00 +11°C° 0.4 mm 3 mps 728 mmHg 81%
    22:00 +11°C° 0.4 mm 3 mps 729 mmHg 80%
    23:00 +10°C° 0.2 mm 3 mps 728 mmHg 80%

    Tomorrow, 24 October, Tuesday

    Time Temperature Precipitation Wind Pressure Humidity
    00:00 +10°C° 0.2 mm 3 mps 728 mmHg 80%
    01:00 +10°C° 0.2 mm 3 mps 728 mmHg 80%
    02:00 +9°C° 0.2 mm 3 mps 728 mmHg 80%
    03:00 +9°C° 0.2 mm 3 mps 728 mmHg 80%
    04:00 +9°C° 0.2 mm 3 mps 728 mmHg 81%
    05:00 +9°C° 0.4 mm 3 mps 728 mmHg 81%
    06:00 +9°C° 0.4 mm 3 mps 728 mmHg 82%
    07:00 +9°C° 0.4 mm 3 mps 728 mmHg 82%
    08:00 +10°C° 0.3 mm 3 mps 729 mmHg 79%
    09:00 +11°C° 0.3 mm 3 mps 729 mmHg 75%
    10:00 +11°C° 0.3 mm 3 mps 729 mmHg 72%
    11:00 +12°C° 0.2 mm 3 mps 729 mmHg 70%
    12:00 +12°C° 0.2 mm 3 mps 730 mmHg 68%
    13:00 +12°C° 0.2 mm 3 mps 730 mmHg 66%
    14:00 +12°C° 0.3 mm 3 mps 730 mmHg 69%
    15:00 +11°C° 0.3 mm 3 mps 730 mmHg 72%
    16:00 +11°C° 0.3 mm 3 mps 730 mmHg 74%
    17:00 +10°C° 0 mm 3 mps 731 mmHg 76%
    18:00 +9°C° 0 mm 3 mps 731 mmHg 78%
    19:00 +9°C° 0 mm 3 mps 732 mmHg 80%
    20:00 +9°C° 0 mm 3 mps 732 mmHg 80%
    21:00 +9°C° 0 mm 3 mps 733 mmHg 80%
    22:00 +9°C° 0 mm 3 mps 733 mmHg 81%
    23:00 +8°C° 0.1 mm 4 mps 734 mmHg 81%

    Day after tomorrow, 25 October, Wednesday

    Time Temperature Precipitation Wind Pressure Humidity
    00:00 +8°C° 0.1 mm 4 mps 734 mmHg 82%
    01:00 +8°C° 0.1 mm 4 mps 735 mmHg 83%
    02:00 +8°C° 0.1 mm 4 mps 735 mmHg 83%
    03:00 +8°C° 0.1 mm 4 mps 735 mmHg 83%
    04:00 +10°C° 0.1 mm 4 mps 736 mmHg 84%
    05:00 +10°C° 0 mm 4 mps 736 mmHg 84%
    06:00 +10°C° 0 mm 4 mps 737 mmHg 84%
    07:00 +10°C° 0 mm 4 mps 737 mmHg 84%
    08:00 +12°C° 0 mm 5 mps 738 mmHg 77%
    09:00 +14°C° 0 mm 5 mps 738 mmHg 70%
    10:00 +15°C° 0 mm 5 mps 739 mmHg 63%
    11:00 +16°C° 0 mm 5 mps 739 mmHg 62%
    12:00 +16°C° 0 mm 5 mps 739 mmHg 61%
    13:00 +16°C° 0 mm 5 mps 739 mmHg 59%
    14:00 +16°C° 0 mm 5 mps 739 mmHg 62%
    15:00 +15°C° 0 mm 5 mps 740 mmHg 65%
    16:00 +15°C° 0 mm 5 mps 740 mmHg 68%
    17:00 +14°C° 0 mm 5 mps 741 mmHg 70%
    18:00 +13°C° 0 mm 5 mps 741 mmHg 73%
    19:00 +12°C° 0 mm 5 mps 742 mmHg 75%
    20:00 +12°C° 0 mm 5 mps 743 mmHg 76%
    21:00 +10°C° 0 mm 5 mps 743 mmHg 77%
    22:00 +11°C° 0 mm 4 mps 744 mmHg 78%
    23:00 +11°C° 0 mm 4 mps 744 mmHg 79%

    26 October, Thursday

    Time Temperature Precipitation Wind Pressure Humidity
    00:00 +10°C° 0 mm 4 mps 744 mmHg 80%
    01:00 +10°C° 0 mm 4 mps 744 mmHg 81%
    02:00 +10°C° 0 mm 4 mps 744 mmHg 81%
    03:00 +10°C° 0 mm 4 mps 744 mmHg 81%
    04:00 +10°C° 0 mm 4 mps 744 mmHg 81%
    05:00 +10°C° 0 mm 4 mps 744 mmHg 80%
    06:00 +10°C° 0 mm 3 mps 745 mmHg 79%
    07:00 +10°C° 0 mm 3 mps 745 mmHg 78%
    08:00 +13°C° 0 mm 3 mps 745 mmHg 71%
    09:00 +16°C° 0 mm 3 mps 745 mmHg 64%
    10:00 +18°C° 0 mm 3 mps 745 mmHg 57%
    11:00 +19°C° 0 mm 2 mps 745 mmHg 54%
    12:00 +20°C° 0 mm 2 mps 744 mmHg 51%
    13:00 +21°C° 0 mm 2 mps 744 mmHg 48%
    14:00 +20°C° 0 mm 2 mps 744 mmHg 52%
    15:00 +19°C° 0 mm 3 mps 744 mmHg 57%
    16:00 +19°C° 0 mm 3 mps 744 mmHg 61%
    17:00 +17°C° 0 mm 3 mps 744 mmHg 63%
    18:00 +16°C° 0 mm 3 mps 744 mmHg 65%
    19:00 +15°C° 0 mm 2 mps 744 mmHg 68%
    20:00 +14°C° 0 mm 2 mps 744 mmHg 66%
    21:00 +14°C° 0 mm 2 mps 744 mmHg 65%
    22:00 +14°C° 0 mm 2 mps 744 mmHg 63%
    23:00 +14°C° 0 mm 2 mps 744 mmHg 62%

    27 October, Friday

    Time Temperature Precipitation Wind Pressure Humidity
    00:00 +14°C° 0 mm 2 mps 744 mmHg 60%
    01:00 +14°C° 0 mm 1 mps 744 mmHg 59%
    02:00 +13°C° 0 mm 1 mps 743 mmHg 57%
    03:00 +13°C° 0 mm 1 mps 743 mmHg 56%
    04:00 +13°C° 0 mm 1 mps 743 mmHg 55%
    05:00 +13°C° 0 mm 1 mps 742 mmHg 54%
    06:00 +14°C° 0 mm 1 mps 742 mmHg 54%
    07:00 +14°C° 0 mm 1 mps 742 mmHg 53%
    08:00 +16°C° 0 mm 1 mps 742 mmHg 48%
    09:00 +20°C° 0 mm 1 mps 742 mmHg 43%
    10:00 +20°C° 0 mm 0 mps 741 mmHg 37%
    11:00 +22°C° 0 mm 1 mps 741 mmHg 38%
    12:00 +23°C° 0 mm 1 mps 740 mmHg 38%
    13:00 +23°C° 0 mm 2 mps 739 mmHg 39%
    14:00 +21°C° 0 mm 2 mps 739 mmHg 46%
    15:00 +20°C° 0 mm 2 mps 738 mmHg 53%
    16:00 +19°C° 0 mm 2 mps 738 mmHg 60%
    17:00 +18°C° 0 mm 1 mps 737 mmHg 65%
    18:00 +16°C° 0 mm 1 mps 737 mmHg 70%
    19:00 +14°C° 0 mm 1 mps 737 mmHg 75%
    20:00 +14°C° 0 mm 1 mps 737 mmHg 74%
    21:00 +14°C° 0 mm 1 mps 736 mmHg 73%
    22:00 +14°C° 0 mm 1 mps 736 mmHg 72%
    23:00 +13°C° 0 mm 1 mps 736 mmHg 72%

    28 October, Saturday

    Time Temperature Precipitation Wind Pressure Humidity
    00:00 +13°C° 0 mm 1 mps 735 mmHg 72%
    01:00 +13°C° 0 mm 1 mps 735 mmHg 72%
    02:00 +13°C° 0 mm 1 mps 735 mmHg 71%
    03:00 +13°C° 0 mm 1 mps 735 mmHg 70%
    04:00 +13°C° 0 mm 1 mps 734 mmHg 69%
    05:00 +13°C° 0 mm 2 mps 735 mmHg 69%
    06:00 +13°C° 0 mm 2 mps 735 mmHg 68%
    07:00 +13°C° 0 mm 2 mps 735 mmHg 67%
    08:00 +13°C° 0 mm 3 mps 735 mmHg 64%
    09:00 +14°C° 0 mm 3 mps 735 mmHg 62%
    10:00 +16°C° 0 mm 3 mps 735 mmHg 59%
    11:00 +16°C° 0 mm 3 mps 735 mmHg 57%
    12:00 +16°C° 0 mm 3 mps 735 mmHg 55%
    13:00 +17°C° 0 mm 3 mps 734 mmHg 53%
    14:00 +16°C° 0 mm 3 mps 734 mmHg 55%
    15:00 +14°C° 0 mm 4 mps 734 mmHg 57%
    16:00 +14°C° 0 mm 4 mps 734 mmHg 59%
    17:00 +13°C° 0 mm 4 mps 735 mmHg 61%
    18:00 +12°C° 0 mm 4 mps 735 mmHg 63%
    19:00 +10°C° 0 mm 5 mps 735 mmHg 65%
    20:00 +9°C° 0 mm 5 mps 735 mmHg 65%
    21:00 +9°C° 0 mm 5 mps 735 mmHg 66%
    22:00 +9°C° 0 mm 5 mps 735 mmHg 66%
    23:00 +8°C° 0.1 mm 5 mps 735 mmHg 67%

    29 October, Sunday

    Time Temperature Precipitation Wind Pressure Humidity
    00:00 +8°C° 0.1 mm 5 mps 735 mmHg 68%
    01:00 +8°C° 0.1 mm 5 mps 735 mmHg 69%
    02:00 +7°C° 0 mm 4 mps 735 mmHg 70%
    03:00 +7°C° 0 mm 4 mps 735 mmHg 71%
    04:00 +7°C° 0 mm 4 mps 735 mmHg 73%
    05:00 +7°C° 0 mm 4 mps 735 mmHg 73%
    06:00 +6°C° 0 mm 4 mps 735 mmHg 74%
    07:00 +6°C° 0 mm 4 mps 735 mmHg 75%
    08:00 +8°C° 0 mm 4 mps 736 mmHg 67%
    09:00 +10°C° 0 mm 4 mps 736 mmHg 58%
    10:00 +12°C° 0 mm 4 mps 736 mmHg 50%
    11:00 +13°C° 0 mm 4 mps 736 mmHg 48%
    12:00 +13°C° 0 mm 4 mps 735 mmHg 47%
    13:00 +14°C° 0 mm 5 mps 735 mmHg 45%
    14:00 +13°C° 0 mm 5 mps 735 mmHg 48%
    15:00 +12°C° 0 mm 5 mps 736 mmHg 50%
    16:00 +12°C° 0 mm 5 mps 736 mmHg 52%
    17:00 +11°C° 0 mm 4 mps 736 mmHg 55%
    18:00 +10°C° 0 mm 4 mps 737 mmHg 58%
    19:00 +8°C° 0 mm 4 mps 737 mmHg 62%
    20:00 +7°C° 0 mm 4 mps 737 mmHg 64%
    21:00 +7°C° 0 mm 3 mps 737 mmHg 66%
    22:00 +7°C° 0 mm 3 mps 738 mmHg 68%
    23:00 +7°C° 0 mm 3 mps 738 mmHg 68%
    Show more